User: anonymous   Login
Location: Davayat
(45.9471°N, 3.1105°E)
Time: 19:51:42
(UTC+00:00)
Language:

OE (NEXTSAT) - Orbit

View from above orbital plane
View from above orbital plane
View from above satellite
View from above satellite

Ground track
Ground track

The orbit data is extracted from the following two-line orbital elements,

1 30774U 07006C   21060.51495858  .00003617  00000-0  82680-4 0  9993
2 30774  46.0005 104.6430 0006832 281.5534  78.4604 15.45088693780578
Epoch (UTC): 01 March 2021 12:21:32
Eccentricity: 0.0006832
inclination: 46.0005°
perigee height: 426 km
apogee height: 436 km
right ascension of ascending node: 104.6430°
argument of perigee: 281.5534°
revolutions per day: 15.45088693
mean anomaly at epoch: 78.4604°
orbit number at epoch: 78057

The dashed part of the orbit path shows where the satellite is in the earth's shadow,  

DLR